User: anonymous   Login
Location: Caltech
(34.1382°N, 118.1253°W)
Time: 21:57:37
(UTC-07:00)
Language:

Meteor 1-11 Rocket - Orbit

View from above orbital plane
View from above orbital plane
View from above satellite
View from above satellite

Ground track
Ground track

The orbit data is extracted from the following two-line orbital elements,

1 05918U 72022B   16235.57609790  .00000037  00000-0  14135-4 0  9994
2 05918  81.2342 254.7323 0059472  85.9341 274.8623 14.05806061276040
Epoch (UTC): 22 August 2016 13:49:34
Eccentricity: 0.0059472
inclination: 81.2342°
perigee height: 830 km
apogee height: 917 km
right ascension of ascending node: 254.7323°
argument of perigee: 85.9341°
revolutions per day: 14.05806061
mean anomaly at epoch: 274.8623°
orbit number at epoch: 27604

The dashed part of the orbit path shows where the satellite is in the earth's shadow,  

DLR